Time,TemperatureF,DewpointF,PressureIn,WindDirection,WindDirectionDegrees,WindSpeedMPH,WindSpeedGustMPH,Humidity,HourlyPrecipIn,Conditions,Clouds,dailyrainin,SoftwareType,DateUTC
2013-01-08 00:00:00,25.0,-99.9,-100.00,South,191,3.0,7.0,-999,-99.99,,,0.02,,2013-01-08 08:00:00,
2013-01-08 00:53:00,25.0,-99.9,-100.00,South,191,3.0,7.0,-999,-99.99,,,0.02,,2013-01-08 08:53:00,
2013-01-08 01:00:00,26.0,-99.9,-100.00,SSW,192,4.0,7.0,-999,-99.99,,,0.02,,2013-01-08 09:00:00,
2013-01-08 01:53:00,26.0,-99.9,-100.00,SSW,192,4.0,7.0,-999,-99.99,,,0.02,,2013-01-08 09:53:00,
2013-01-08 02:00:00,26.0,-99.9,-100.00,South,186,5.0,9.0,-999,-99.99,,,0.02,,2013-01-08 10:00:00,
2013-01-08 02:53:00,26.0,-99.9,-100.00,South,186,5.0,9.0,-999,-99.99,,,0.02,,2013-01-08 10:53:00,
2013-01-08 03:00:00,26.0,-99.9,-100.00,South,182,5.0,8.0,-999,-99.99,,,0.02,,2013-01-08 11:00:00,
2013-01-08 03:53:00,26.0,-99.9,-100.00,South,182,5.0,8.0,-999,-99.99,,,0.02,,2013-01-08 11:53:00,
2013-01-08 04:00:00,26.0,-99.9,-100.00,South,181,5.0,8.0,-999,-99.99,,,0.02,,2013-01-08 12:00:00,
2013-01-08 04:53:00,26.0,-99.9,-100.00,South,181,5.0,8.0,-999,-99.99,,,0.02,,2013-01-08 12:53:00,
2013-01-08 05:00:00,26.0,-99.9,-100.00,South,182,5.0,7.0,-999,-99.99,,,0.02,,2013-01-08 13:00:00,
2013-01-08 05:53:00,26.0,-99.9,-100.00,South,182,5.0,7.0,-999,-99.99,,,0.02,,2013-01-08 13:53:00,
2013-01-08 06:00:00,26.0,-99.9,-100.00,South,188,4.0,6.0,-999,-99.99,,,0.02,,2013-01-08 14:00:00,
2013-01-08 06:53:00,26.0,-99.9,-100.00,South,188,4.0,6.0,-999,-99.99,,,0.02,,2013-01-08 14:53:00,
2013-01-08 07:00:00,26.0,-99.9,-100.00,South,191,4.0,6.0,-999,-99.99,,,0.01,,2013-01-08 15:00:00,
2013-01-08 07:53:00,26.0,-99.9,-100.00,South,191,4.0,6.0,-999,-99.99,,,0.01,,2013-01-08 15:53:00,
2013-01-08 08:00:00,26.0,-99.9,-100.00,SSW,206,3.0,5.0,-999,-99.99,,,0.01,,2013-01-08 16:00:00,
2013-01-08 08:53:00,26.0,-99.9,-100.00,SSW,206,3.0,5.0,-999,-99.99,,,0.01,,2013-01-08 16:53:00,
2013-01-08 09:00:00,27.0,-99.9,-100.00,SSW,197,4.0,6.0,-999,-99.99,,,-99.99,,2013-01-08 17:00:00,
2013-01-08 09:54:00,27.0,-99.9,-100.00,SSW,197,4.0,6.0,-999,-99.99,,,-99.99,,2013-01-08 17:54:00,
2013-01-08 10:00:00,27.0,-99.9,-100.00,SSW,199,6.0,9.0,-999,-99.99,,,0.01,,2013-01-08 18:00:00,
2013-01-08 10:53:00,27.0,-99.9,-100.00,SSW,199,6.0,9.0,-999,-99.99,,,0.01,,2013-01-08 18:53:00,
2013-01-08 11:00:00,28.0,-99.9,-100.00,SSW,204,6.0,13.0,-999,-99.99,,,0.01,,2013-01-08 19:00:00,
2013-01-08 11:53:00,28.0,-99.9,-100.00,SSW,204,6.0,13.0,-999,-99.99,,,0.01,,2013-01-08 19:53:00,
2013-01-08 12:00:00,28.0,-99.9,-100.00,SSW,203,9.0,16.0,-999,-99.99,,,0.01,,2013-01-08 20:00:00,
2013-01-08 12:54:00,28.0,-99.9,-100.00,SSW,203,9.0,16.0,-999,-99.99,,,0.01,,2013-01-08 20:54:00,
2013-01-08 13:00:00,28.0,-99.9,-100.00,SSW,199,14.0,20.0,-999,-99.99,,,0.01,,2013-01-08 21:00:00,
2013-01-08 13:53:00,28.0,-99.9,-100.00,SSW,199,14.0,20.0,-999,-99.99,,,0.01,,2013-01-08 21:53:00,
2013-01-08 14:00:00,28.0,-99.9,-100.00,SSW,200,11.0,19.0,-999,-99.99,,,0.01,,2013-01-08 22:00:00,
2013-01-08 14:53:00,28.0,-99.9,-100.00,SSW,200,11.0,19.0,-999,-99.99,,,0.01,,2013-01-08 22:53:00,
2013-01-08 15:00:00,29.0,-99.9,-100.00,SSW,199,9.0,15.0,-999,-99.99,,,0.00,,2013-01-08 23:00:00,
2013-01-08 15:53:00,29.0,-99.9,-100.00,SSW,199,9.0,15.0,-999,-99.99,,,0.00,,2013-01-08 23:53:00,
2013-01-08 16:00:00,29.0,-99.9,-100.00,SSW,203,6.0,11.0,-999,-99.99,,,0.00,,2013-01-09 00:00:00,
2013-01-08 16:53:00,29.0,-99.9,-100.00,SSW,203,6.0,11.0,-999,-99.99,,,0.00,,2013-01-09 00:53:00,
2013-01-08 17:00:00,29.0,-99.9,-100.00,SSW,200,7.0,14.0,-999,-99.99,,,0.00,,2013-01-09 01:00:00,
2013-01-08 17:53:00,29.0,-99.9,-100.00,SSW,200,7.0,14.0,-999,-99.99,,,0.00,,2013-01-09 01:53:00,
2013-01-08 18:00:00,30.0,-99.9,-100.00,SSW,198,8.0,13.0,-999,-99.99,,,0.00,,2013-01-09 02:00:00,
2013-01-08 18:53:00,30.0,-99.9,-100.00,SSW,198,8.0,13.0,-999,-99.99,,,0.00,,2013-01-09 02:53:00,
2013-01-08 19:00:00,30.0,-99.9,-100.00,South,185,8.0,15.0,-999,-99.99,,,0.00,,2013-01-09 03:00:00,
2013-01-08 19:53:00,30.0,-99.9,-100.00,South,185,8.0,15.0,-999,-99.99,,,0.00,,2013-01-09 03:53:00,
2013-01-08 20:00:00,30.0,-99.9,-100.00,South,183,10.0,17.0,-999,-99.99,,,0.00,,2013-01-09 04:00:00,
2013-01-08 20:53:00,30.0,-99.9,-100.00,South,183,10.0,17.0,-999,-99.99,,,0.00,,2013-01-09 04:53:00,
2013-01-08 21:00:00,30.0,-99.9,-100.00,South,185,9.0,16.0,-999,-99.99,,,0.00,,2013-01-09 05:00:00,
2013-01-08 21:53:00,30.0,-99.9,-100.00,South,185,9.0,16.0,-999,-99.99,,,0.00,,2013-01-09 05:53:00,
2013-01-08 22:00:00,31.0,-99.9,-100.00,SSW,199,8.0,16.0,-999,-99.99,,,0.00,,2013-01-09 06:00:00,
2013-01-08 22:53:00,31.0,-99.9,-100.00,SSW,199,8.0,16.0,-999,-99.99,,,0.00,,2013-01-09 06:53:00,
2013-01-08 23:00:00,31.0,-99.9,-100.00,SSW,196,8.0,14.0,-999,-99.99,,,0.00,,2013-01-09 07:00:00,
2013-01-08 23:53:00,31.0,-99.9,-100.00,SSW,196,8.0,14.0,-999,-99.99,,,0.00,,2013-01-09 07:53:00,